• In Uzbekistan
  • List of Countries
  • For 7 days
  • Water Temperature
  • Weather Map
  • Weather Widgets
  • user-avatar
    Login

    Hourly Weather Sumgayit

    Today, 29 March, Sunday

    Time Temperature Precipitation Wind Pressure Humidity
    00:00 +9°C° 0 mm 0 mps 739 mmHg 58%
    01:00 +8°C° 0 mm 0 mps 739 mmHg 57%
    02:00 +8°C° 0 mm 0 mps 738 mmHg 56%
    03:00 +8°C° 0 mm 0 mps 738 mmHg 53%
    04:00 +8°C° 0 mm 0 mps 737 mmHg 52%
    05:00 +8°C° 0 mm 0 mps 737 mmHg 51%
    06:00 +7°C° 0 mm 0 mps 737 mmHg 50%
    07:00 +10°C° 0 mm 1 mps 737 mmHg 42%
    08:00 +12°C° 0 mm 1 mps 736 mmHg 35%
    09:00 +13°C° 0 mm 2 mps 736 mmHg 27%
    10:00 +14°C° 0 mm 2 mps 736 mmHg 26%
    11:00 +15°C° 0 mm 2 mps 735 mmHg 25%
    12:00 +16°C° 0 mm 3 mps 735 mmHg 24%
    13:00 +16°C° 0 mm 3 mps 734 mmHg 23%
    14:00 +16°C° 0 mm 3 mps 734 mmHg 23%
    15:00 +16°C° 0 mm 3 mps 733 mmHg 23%
    16:00 +14°C° 0 mm 4 mps 733 mmHg 24%
    17:00 +14°C° 0 mm 4 mps 733 mmHg 26%
    18:00 +13°C° 0 mm 4 mps 733 mmHg 28%
    19:00 +12°C° 0.1 mm 4 mps 733 mmHg 37%
    20:00 +11°C° 0.1 mm 3 mps 732 mmHg 45%
    21:00 +10°C° 0.1 mm 3 mps 732 mmHg 54%
    22:00 +10°C° 0.1 mm 3 mps 732 mmHg 54%
    23:00 +10°C° 0.1 mm 3 mps 732 mmHg 54%

    Tomorrow, 30 March, Monday

    Time Temperature Precipitation Wind Pressure Humidity
    00:00 +10°C° 0.1 mm 3 mps 731 mmHg 54%
    01:00 +8°C° 0 mm 4 mps 731 mmHg 56%
    02:00 +8°C° 0 mm 4 mps 730 mmHg 58%
    03:00 +7°C° 0 mm 5 mps 730 mmHg 60%
    04:00 +7°C° 0 mm 5 mps 730 mmHg 61%
    05:00 +7°C° 0 mm 5 mps 730 mmHg 63%
    06:00 +7°C° 0 mm 5 mps 730 mmHg 64%
    07:00 +8°C° 0 mm 5 mps 730 mmHg 61%
    08:00 +10°C° 0 mm 6 mps 730 mmHg 58%
    09:00 +11°C° 0 mm 6 mps 730 mmHg 55%
    10:00 +14°C° 0 mm 6 mps 730 mmHg 53%
    11:00 +15°C° 0 mm 6 mps 730 mmHg 50%
    12:00 +16°C° 0 mm 6 mps 730 mmHg 48%
    13:00 +16°C° 0 mm 5 mps 730 mmHg 48%
    14:00 +17°C° 0 mm 4 mps 730 mmHg 48%
    15:00 +17°C° 0 mm 3 mps 729 mmHg 49%
    16:00 +14°C° 0 mm 4 mps 730 mmHg 52%
    17:00 +13°C° 0 mm 4 mps 730 mmHg 56%
    18:00 +12°C° 0 mm 5 mps 730 mmHg 60%
    19:00 +12°C° 0 mm 3 mps 731 mmHg 61%
    20:00 +13°C° 0 mm 2 mps 731 mmHg 63%
    21:00 +13°C° 0 mm 1 mps 732 mmHg 65%
    22:00 +12°C° 0 mm 1 mps 732 mmHg 66%
    23:00 +12°C° 0 mm 1 mps 732 mmHg 67%

    Day after tomorrow, 31 March, Tuesday

    Time Temperature Precipitation Wind Pressure Humidity
    00:00 +12°C° 0 mm 1 mps 733 mmHg 68%
    01:00 +12°C° 0 mm 1 mps 733 mmHg 71%
    02:00 +11°C° 0 mm 1 mps 733 mmHg 73%
    03:00 +11°C° 0 mm 1 mps 733 mmHg 75%
    04:00 +11°C° 0 mm 1 mps 734 mmHg 74%
    05:00 +11°C° 0 mm 1 mps 734 mmHg 73%
    06:00 +12°C° 0 mm 1 mps 735 mmHg 71%
    07:00 +13°C° 0 mm 2 mps 735 mmHg 67%
    08:00 +14°C° 0 mm 2 mps 736 mmHg 62%
    09:00 +14°C° 0 mm 3 mps 736 mmHg 57%
    10:00 +14°C° 0 mm 3 mps 736 mmHg 56%
    11:00 +14°C° 0 mm 3 mps 736 mmHg 56%
    12:00 +14°C° 0 mm 3 mps 737 mmHg 55%
    13:00 +14°C° 0 mm 4 mps 737 mmHg 59%
    14:00 +14°C° 0 mm 5 mps 737 mmHg 62%
    15:00 +14°C° 0 mm 6 mps 736 mmHg 65%
    16:00 +13°C° 0 mm 6 mps 737 mmHg 66%
    17:00 +11°C° 0 mm 6 mps 737 mmHg 68%
    18:00 +11°C° 0 mm 6 mps 738 mmHg 69%
    19:00 +12°C° 0 mm 5 mps 738 mmHg 71%
    20:00 +11°C° 0 mm 4 mps 738 mmHg 73%
    21:00 +11°C° 0 mm 3 mps 739 mmHg 75%
    22:00 +12°C° 0 mm 2 mps 739 mmHg 77%
    23:00 +11°C° 0 mm 1 mps 739 mmHg 80%

    1 April, Wednesday

    Time Temperature Precipitation Wind Pressure Humidity
    00:00 +11°C° 0 mm 1 mps 739 mmHg 83%
    01:00 +10°C° 0 mm 1 mps 739 mmHg 84%
    02:00 +10°C° 0 mm 1 mps 738 mmHg 84%
    03:00 +10°C° 0 mm 1 mps 738 mmHg 85%
    04:00 +10°C° 0 mm 1 mps 738 mmHg 84%
    05:00 +10°C° 0 mm 1 mps 738 mmHg 83%
    06:00 +10°C° 0 mm 1 mps 738 mmHg 83%
    07:00 +10°C° 0 mm 2 mps 739 mmHg 75%
    08:00 +13°C° 0 mm 2 mps 739 mmHg 68%
    09:00 +13°C° 0 mm 3 mps 739 mmHg 61%
    10:00 +14°C° 0 mm 3 mps 739 mmHg 59%
    11:00 +15°C° 0 mm 4 mps 738 mmHg 57%
    12:00 +16°C° 0 mm 5 mps 738 mmHg 54%
    13:00 +16°C° 0 mm 5 mps 738 mmHg 56%
    14:00 +15°C° 0 mm 5 mps 737 mmHg 57%
    15:00 +15°C° 0 mm 6 mps 737 mmHg 58%
    16:00 +14°C° 0 mm 5 mps 737 mmHg 62%
    17:00 +14°C° 0 mm 4 mps 736 mmHg 67%
    18:00 +13°C° 0 mm 4 mps 736 mmHg 71%
    19:00 +13°C° 0 mm 3 mps 736 mmHg 72%
    20:00 +13°C° 0 mm 2 mps 737 mmHg 73%
    21:00 +13°C° 0 mm 2 mps 737 mmHg 73%
    22:00 +13°C° 0 mm 2 mps 737 mmHg 73%
    23:00 +13°C° 0 mm 2 mps 736 mmHg 74%

    2 April, Thursday

    Time Temperature Precipitation Wind Pressure Humidity
    00:00 +12°C° 0 mm 3 mps 736 mmHg 74%
    01:00 +11°C° 0.6 mm 3 mps 736 mmHg 78%
    02:00 +11°C° 0.6 mm 3 mps 735 mmHg 82%
    03:00 +11°C° 0.6 mm 3 mps 735 mmHg 86%
    04:00 +10°C° 1 mm 3 mps 734 mmHg 87%
    05:00 +10°C° 1 mm 3 mps 734 mmHg 89%
    06:00 +10°C° 1 mm 3 mps 734 mmHg 91%
    07:00 +10°C° 1.3 mm 3 mps 734 mmHg 92%
    08:00 +10°C° 1.3 mm 3 mps 734 mmHg 92%
    09:00 +10°C° 1.3 mm 3 mps 734 mmHg 92%
    10:00 +10°C° 0.5 mm 3 mps 734 mmHg 91%
    11:00 +10°C° 0.5 mm 3 mps 734 mmHg 89%
    12:00 +10°C° 0.5 mm 3 mps 734 mmHg 88%
    13:00 +11°C° 0 mm 4 mps 734 mmHg 84%
    14:00 +12°C° 0 mm 4 mps 734 mmHg 80%
    15:00 +13°C° 0 mm 5 mps 734 mmHg 75%
    16:00 +12°C° 0 mm 5 mps 734 mmHg 77%
    17:00 +12°C° 0 mm 5 mps 735 mmHg 79%
    18:00 +10°C° 0 mm 5 mps 735 mmHg 81%
    19:00 +11°C° 0 mm 4 mps 735 mmHg 82%
    20:00 +11°C° 0 mm 4 mps 736 mmHg 83%
    21:00 +11°C° 0 mm 4 mps 736 mmHg 85%
    22:00 +11°C° 0 mm 3 mps 736 mmHg 84%
    23:00 +11°C° 0 mm 3 mps 736 mmHg 84%

    3 April, Friday

    Time Temperature Precipitation Wind Pressure Humidity
    00:00 +12°C° 0 mm 2 mps 736 mmHg 84%
    01:00 +10°C° 0 mm 2 mps 736 mmHg 85%
    02:00 +10°C° 0 mm 2 mps 736 mmHg 86%
    03:00 +10°C° 0 mm 3 mps 736 mmHg 87%
    04:00 +10°C° 0 mm 3 mps 736 mmHg 88%
    05:00 +9°C° 0 mm 3 mps 737 mmHg 88%
    06:00 +9°C° 0 mm 3 mps 737 mmHg 88%
    07:00 +10°C° 0 mm 3 mps 737 mmHg 82%
    08:00 +11°C° 0 mm 3 mps 738 mmHg 77%
    09:00 +12°C° 0 mm 4 mps 738 mmHg 71%
    10:00 +13°C° 0 mm 4 mps 738 mmHg 69%
    11:00 +13°C° 0 mm 5 mps 738 mmHg 68%
    12:00 +14°C° 0 mm 6 mps 738 mmHg 67%
    13:00 +13°C° 0 mm 6 mps 738 mmHg 68%
    14:00 +13°C° 0 mm 6 mps 738 mmHg 70%
    15:00 +13°C° 0 mm 6 mps 738 mmHg 71%
    16:00 +11°C° 0 mm 6 mps 738 mmHg 74%
    17:00 +10°C° 0 mm 6 mps 738 mmHg 77%
    18:00 +10°C° 0 mm 6 mps 738 mmHg 80%
    19:00 +10°C° 0 mm 6 mps 739 mmHg 80%
    20:00 +10°C° 0 mm 6 mps 739 mmHg 80%
    21:00 +10°C° 0 mm 6 mps 740 mmHg 80%
    22:00 +10°C° 0 mm 6 mps 740 mmHg 80%
    23:00 +9°C° 0 mm 6 mps 740 mmHg 80%
    Show more